Regional Weather Roundup
Issued by NWS Mt. Holly, NJ

Home | Current Version | Previous Version | Text Only | Print | Product List | Glossary On
Versions: 1 2 3 4 5 6 7 8 9 10 11 12 13 14 15 16 17 18 19 20 21 22 23 24 25 26 27 28
000
ASUS41 KPHI 290912
RWRPHI

REGIONAL WEATHER ROUNDUP
NATIONAL WEATHER SERVICE MOUNT HOLLY NJ
500 AM EDT SUN MAY 29 2016

NOTE:  "FAIR" INDICATES FEW OR NO CLOUDS BELOW 12,000 FEET WITH NO
SIGNIFICANT WEATHER AND/OR OBSTRUCTIONS TO VISIBILITY.

 * = STATION DOES NOT REPORT PRECIPITATION (E.G. RAIN, SNOW, ETC.)
        OR FOG.

NJZ015>026-291000-
SOUTHERN NEW JERSEY

CITY           SKY/WX    TMP DP  RH WIND       PRES   REMARKS
POMONA         CLEAR     64  61  90 CALM      30.15S
WILDWOOD*      CLEAR    N/A N/A N/A CALM      30.15S
MILLVILLE      CLEAR     59  57  93 CALM      30.15S
WRIGHTSTOWN    CLEAR     62  54  77 CALM      30.13S
MOUNT HOLLY      N/A     62  54  74 CALM      30.15S
TRENTON        CLEAR     66  57  72 SW3       30.13S

$$
NJZ001>014-291000-
NORTHERN NEW JERSEY

CITY           SKY/WX    TMP DP  RH WIND       PRES   REMARKS
SUSSEX         FOG       66  65  96 CALM      30.13R VSB 1/2
ANDOVER*         N/A     66  65  96 CALM      30.14R
MORRISTOWN     CLEAR     66  57  72 S3        30.13R
NEWARK         CLEAR     71  55  56 SW9       30.12S
TETERBORO      CLEAR     70  54  56 SW6       30.11S
CALDWELL       CLEAR     70  60  70 CALM      30.13R
SOMERVILLE     CLEAR     64  62  93 CALM      30.12R FOG
ALLAIRE*       PTCLDY    66  54  65 SW5       30.16R
TOMS RIVER*    CLEAR    N/A N/A N/A CALM      30.15S

$$
PAZ043-044-047-054-055-060>062-066>071-291000-
EASTERN PENNSYLVANIA

CITY           SKY/WX    TMP DP  RH WIND       PRES   REMARKS
PHILADELPHIA   MOCLDY    67  56  67 S6        30.15R
NORTH PHILA    CLEAR     68  59  73 S3        30.16R
BLUE BELL*     CLEAR     61  59  94 CALM      30.14S
DOYLESTOWN     PTCLDY    65  56  72 CALM      30.14R
QUAKERTOWN*    CLEAR     64  57  77 CALM      30.15S
PERKASIE*      CLOUDY    66  63  88 CALM      30.16R
POTTSTOWN      CLEAR     64  57  78 CALM      30.16R
LANCASTER      CLEAR     62  56  80 CALM      30.14R
COATESVILLE    CLEAR     64  59  82 CALM      30.17R
READING        CLEAR     69  55  60 S5        30.12S
ALLENTOWN      CLEAR     66  61  84 CALM      30.13S
MOUNT POCONO   CLEAR     64  61  90 NW5       30.18S
HAZLETON         N/A     63  63 100 CALM      30.19S FOG
LEHIGHTON      CLOUDY    61  61 100 CALM      30.15S FOG
WILKES BARRE   PTCLDY    68  65  90 E3        30.13S

$$
DEZALL-MDZ008-012-015-019-020-291000-
DELAWARE AND EASTERN MARYLAND

CITY           SKY/WX    TMP DP  RH WIND       PRES   REMARKS
WILMINGTON     CLOUDY    65  58  78 S6        30.15R
DOVER          CLEAR     63  63 100 SE2       30.13S
GEORGETOWN     PTCLDY    57  56  96 CALM      30.15S
EASTON         CLEAR     63  63 100 CALM      30.18R
PATUXENT       PTCLDY    61  59  93 CALM      30.13S
OCEAN CITY     CLEAR     63  61  93 CALM      30.14S FOG
WALLOPS ISLAND MOCLDY    67  65  93 CALM      30.14S
CAMBRIDGE        N/A     57  55  94 CALM      30.13S
SALISBURY      PTCLDY    58  56  93 CALM      30.14S

$$
PAZ001-021-NYZ056-072-MDZ011-DCZ001-291000-
OTHER NEARBY LOCATIONS

CITY           SKY/WX    TMP DP  RH WIND       PRES   REMARKS
HARRISBURG     CLEAR     71  63  75 S6        30.12S
STATE COLLEGE  CLEAR     66  64  91 CALM      30.13S
WILLIAMSPORT   CLEAR     68  65  90 CALM      30.10S
BINGHAMTON     PTCLDY    70  65  84 S5        30.14S
NEW YORK CITY  CLEAR     73  54  51 VRB6      30.15S
BALTIMORE      MOCLDY    63  59  87 CALM      30.13S
WASHINGTON DC  MOCLDY    67  63  87 S3        30.14R

$$




USA.gov is the U.S. government's official web portal to all federal, state and local government web resources and services.